This is the latest recevied weather packets stored in our database for station/object KI4MRC. If no packets are shown the sender has not sent any weather packets the latest 10 day(s).
| Time | Temp. | Humidity | Pressure | Rain* | Wind** | Luminosity | Snow |
|---|---|---|---|---|---|---|---|
| 1777320811 | 27.78° C | 73% | 1015 hPa | 0 mm | - | 239 W/m² | - |
| 1777320507 | 27.78° C | 72% | 1015.2 hPa | 0 mm | - | 190 W/m² | - |
| 1777320205 | 27.78° C | 69% | 1015 hPa | 0 mm | - | 192 W/m² | - |
| 1777319902 | 28.89° C | 66% | 1014.9 hPa | 0 mm | - | 174 W/m² | - |
| 1777319599 | 28.33° C | 69% | 1014.5 hPa | 0 mm | - | 129 W/m² | - |
| 1777319296 | 28.89° C | 69% | 1014.6 hPa | 0 mm | - | 124 W/m² | - |
| 1777318993 | 28.89° C | 67% | 1014.3 hPa | 0 mm | - | 137 W/m² | - |
| 1777318690 | 28.33° C | 67% | 1014.4 hPa | 0 mm | - | 128 W/m² | - |
| 1777318386 | 29.44° C | 65% | 1014.6 hPa | 0 mm | - | 232 W/m² | - |
| 1777318082 | 29.44° C | 66% | 1014.5 hPa | 0 mm | - | 196 W/m² | - |
| 1777317779 | 29.44° C | 64% | 1014.7 hPa | 0 mm | - | 128 W/m² | - |
| 1777317476 | 29.44° C | 63% | 1014.7 hPa | 0 mm | - | 208 W/m² | - |
| 1777317174 | 30° C | 62% | 1014.6 hPa | 0 mm | - | 247 W/m² | - |
| 1777316869 | 30° C | 62% | 1014.5 hPa | 0 mm | - | 906 W/m² | - |
| 1777316566 | 30° C | 62% | 1014.6 hPa | 0 mm | - | 885 W/m² | - |
| 1777316263 | 30° C | 63% | 1014.6 hPa | 0 mm | - | 987 W/m² | - |
| 1777315961 | 30° C | 61% | 1014.5 hPa | 0 mm | - | 293 W/m² | - |
| 1777315659 | 30.56° C | 64% | 1014.6 hPa | 0 mm | - | 984 W/m² | - |
| 1777315357 | 30° C | 63% | 1014.7 hPa | 0 mm | - | 998 W/m² | - |
| 1777315055 | 29.44° C | 65% | 1014.7 hPa | 0 mm | - | 1009 W/m² | - |
| 1777314755 | 30° C | 66% | 1014.8 hPa | 0 mm | - | 225 W/m² | - |
| 1777314452 | 29.44° C | 67% | 1014.8 hPa | 0 mm | - | 1000 W/m² | - |
| 1777314148 | 28.89° C | 66% | 1014.8 hPa | 0 mm | - | 1042 W/m² | - |
| 1777313847 | 28.89° C | 67% | 1014.9 hPa | 0 mm | - | 147 W/m² | - |
| 1777313543 | 28.89° C | 67% | 1014.8 hPa | 0 mm | - | 284 W/m² | - |
* Rain latest hour (hover to see other rain measurements)
** Current wind speed in m/s (hover to see current wind gust speed)